FENGYUN 1C DEB

Satellite information

Favourite Embed

Satellite Type and Status

DEBRISIN ORBIT

Key statistics

Satellite FENGYUN 1C DEB at a glance.

Uptime

9715

Days in orbit

Revolutions

≈ 14.0

Per day

Orbit

SSO

Sun Synchronous Orbit

Inclination

98.2

Latest

Satellite identification and parameters

Extended collection of information and parameters for FENGYUN 1C DEB.

Object identification

Identified? True

Debris? True

Object name: FENGYUN 1C DEB

International designator: 1999-025CBQ

Object number (NORAD): 31658

Object ID (CCSDS): 31658

Country: PEOPLES REPUBLIC OF CHINA (PRC)

Current information (Y/N): Y

RCS size: SMALL

Orbital parameters

Period: 102.958 minutes

Inclination: 98.1534 deg

SMA: 7276.67 km

Apoapsis: 1055.509 km

Periapsis: 741.561 km

RAAN: 184.9954 deg

Eccentricy: 0.0215722

Argument of periapsis: 356.7033 deg

Mean anomaly: 3.2699 deg

Mean motion: 13.98632883 rev/day

Mean motion (dot): 0.00004324 rev/day2

B* drag term: 0.0024889 1/REarth

Two-line elements (TLE)

Creation date: Nov. 30, 2025, 10:56 p.m.

Reference frame: TEME

Reference center: EARTH

Epoch: Nov. 30, 2025, 1:35 p.m. UTC

TLE line 0: 0 FENGYUN 1C DEB

TLE line 1: 1 31658U 99025CBQ 25334.56598532 .00004324 00000-0 24889-2 0 9994

TLE line 2: 2 31658 98.1534 184.9954 0215722 356.7033 3.2699 13.98632883696462

Live tracking on map

Real-time ground track for satellite FENGYUN 1C DEB.

In-orbit conjunctions

A list of the most updated potential collisions computed for object FENGYUN 1C DEB.

Target Orbit TCA Probability of collision Miss distance Type
CZ-4C DEB SSO 2025-07-03 01:25:27 0.000104787 101.0 (m) DEBRIS
INTERCOSMOS 22 LEO 2025-05-27 16:12:56 0.000234345 213.0 (m) PAYLOAD
CZ-6A DEB LEO 2024-11-10 07:12:41 0.0002374239 520.0 (m) DEBRIS

Associated space launch

Chinese polar orbiting meteorological satellite

FENGYUN 1C DEB was lifted into orbit during the mission ‘Long March 4B | Feng Yun 1C’, on board a Long March 4B space rocket.

The launch took place on May 10, 1999, 1:33 a.m. from Launch Complex 7.

For more information about the launch, click the button.

Launch to space Long March 4B | Feng Yun 1C
Long March 4B | Feng Yun 1C

Agency: N/A

Status: Launch Successful

Launch date: May 10, 1999, 1:33 a.m. UTC

Rocket: Long March 4B

Launch pad: Launch Complex 7

Location: Taiyuan Satellite Launch Center, People's Republic of China

...

Latest news about this satellite

There are no fresh news available about this satellite. Check back as we update our databases every day.


Newsletter sign-up

Weekly statistics, charts and insights to help you stay on top of the space industry.